Regional Weather Roundup
Issued by NWS

Home | Current Version | Previous Version | Graphics & Text | Print | Product List | Glossary On
Versions: 1 2 3 4 5 6 7 8 9 10 11 12 13 14 15 16 17 18 19 20 21 22 23 24 25 26 27 28 29 30 31 32 33 34 35 36 37 38 39 40 41 42 43 44 45 46 47 48 49 50
381
ASUS45 KBOU 242310
RWRCO

WEATHER ROUNDUP FOR COLORADO
NATIONAL WEATHER SERVICE DENVER/BOULDER CO
500 PM MDT THU MAY 24 2018

NOTE: "FAIR" INDICATES FEW OR NO CLOUDS BELOW 12000 FEET WITH NO
SIGNIFICANT WEATHER AND/OR OBSTRUCTIONS TO VISIBILITY.

COZ001>005-013-030-031-250000-
...NORTHWEST COLORADO...

CITY           SKY/WX    TMP DP  RH WIND       PRES   REMARKS
CRAIG          FAIR      78  32  18 W15G22    30.16F
HAYDEN         FAIR      74  30  19 W17G24    30.19F
MEEKER         FAIR      76  29  17 SW5       30.17F
RANGELY        FAIR      83  30  14 CALM      30.08F
RABBIT EARS PA FAIR      54  32  43 W12G23    30.45F
STEAMBOAT SPGS FAIR      72  33  24 W12       30.21F
WALDEN         FAIR      66  27  22 W13G22    30.30S
$$

COZ006>008-011-250000-
...WEST CENTRAL VALLEYS...

CITY           SKY/WX    TMP DP  RH WIND       PRES   REMARKS
GRAND JUNCTION FAIR      85  25  11 W7        30.04F
MONTROSE       FAIR      82  21  10 NW12      30.11F
EAGLE          FAIR      78  23  13 W12G18    30.18F
RIFLE          FAIR      84  18   8 W16       30.09F
DELTA          FAIR      88  20   8 W5        30.07F
NUCLA          FAIR      82  14   7 E3G16     30.14F
$$

COZ017>023-064>068-250000-
...SOUTHWEST COLORADO...

CITY           SKY/WX    TMP DP  RH WIND       PRES   REMARKS
DURANGO        FAIR      79   5   6 SW10      30.19F
CORTEZ         FAIR      83  16   8 SW12      30.14F
PAGOSA SPRINGS FAIR      76  -4   4 W10G16    30.28S
TELLURIDE      FAIR      67  16  13 CALM      30.36S
WOLF CREEK PAS FAIR      52  12  20 SW18G25   30.60S
$$

COZ009-010-012-014-032>034-037-058>063-250000-
...CENTRAL COLORADO...

CITY           SKY/WX    TMP DP  RH WIND       PRES   REMARKS
ASPEN          FAIR      74  26  16 N7        30.25S
BUENA VISTA    FAIR      74  13   9 W10G20    30.23S
COPPER MTN     FAIR      54  21  28 SW3G9     30.55S
BERTHOUD PASS  PTSUNNY   46  34  61 NW21G30   30.57S
COTTONWOOD PAS PTSUNNY   70  12  11 CALM      30.38S
GUNNISON       FAIR      76  23  14 NW13      30.23
GRANBY         FAIR      71  30  22 NW15G22   30.28F
KREMMLING      FAIR      75  27  16 NW6       30.24S
LEADVILLE      FAIR      63  21  20 NW12G18   30.38F
MONARCH PASS   FAIR      59  14  17 MISG      30.63S
SALIDA         FAIR      78  16  10 SW13      30.27S
SUNLIGHT       FAIR      54  21  28 W6        30.49F
WILKERSON PASS CLOUDY    57  12  17 N7        30.51S
$$

COZ069>075-250000-
...SAN LUIS VALLEY/SANGRE DE CRISTO MOUNTAINS...

CITY           SKY/WX    TMP DP  RH WIND       PRES   REMARKS
ALAMOSA        FAIR      78  17  10 SW16G23   30.21F
DEL NORTE      FAIR      76  17  10 SW13G25   30.24F
LA VETA PASS   FAIR      66  19  16 S16G32    30.52F
SAGUACHE       NOT AVBL
$$

COZ035-036-038>040-250000-
...NORTHERN COLORADO FRONT RANGE...

CITY           SKY/WX    TMP DP  RH WIND       PRES   REMARKS
DENVER INTL AP FAIR      83  32  16 VRB3      30.06F
AURORA         MOSUNNY   82  30  15 SE8       30.08F
FRONT RANGE AP PTSUNNY   82  28  14 VRB7      30.08F
ERIE MUNI ARPT FAIR      84  32  15 N7        30.08F
BOULDER MUN AP FAIR      82  36  18 NE6       30.04S
CENTENNIAL     PTSUNNY   80  32  17 E7        30.09S
BROOMFIELD     PTSUNNY   84  30  14 CALM      30.08F
FORT COLLINS   PTSUNNY   78  42  27 SE7       30.05F
LONGMONT       NOT AVBL
$$

COZ041-046-047-076>085-087-088-250000-
...PIKES PEAK/PALMER DIVIDE AND SOUTHERN FOOTHILLS...

CITY           SKY/WX    TMP DP  RH WIND       PRES   REMARKS
COLO. SPRINGS  PTSUNNY   80  32  17 E15G30    30.10F
A. F. ACADEMY  PTSUNNY   73  34  24 NE18G25   30.15R
SCHRIEVER AFB  NOT AVBL
CHEYENNE MTN   FAIR      73  31  21 SE9       30.12R
ELLICOTT       NOT AVBL
FALCON         NOT AVBL
FORT CARSON    FAIR      80  34  19 E15       30.07R
LIMON          FAIR      75  37  25 E12G28    30.11R
MONUMENT HILL  FAIR      72  36  26 E14G21    30.21F
CANON CITY     SUNNY     90  19   7 CALM      30.02F
WALSENBURG     FAIR      88  19   8 W15G21    30.08S
TRINIDAD       FAIR      85  36  17 S16       30.06F
$$

COZ042>045-048>051-090-091-250000-
...NORTHEAST COLORADO...

CITY           SKY/WX    TMP DP  RH WIND       PRES   REMARKS
GREELEY ARPT   FAIR      83  36  18 CALM      30.03F
AKRON          FAIR      82  40  22 W9        30.04F
BURLINGTON     FAIR      80  51  36 NE7       30.03S
WRAY           FAIR      86  48  26 E8        29.99S
YUMA           FAIR      82  43  24 S3        30.01F
STERLING       FAIR      82  45  26 CALM      29.99S
HOLYOKE        FAIR      86  45  23 E3        30.00S
FORT MORGAN    FAIR      87  28  12 NW3       30.03F
$$

COZ086-089-092>099-250000-
...SOUTHEAST COLORADO...

CITY           SKY/WX    TMP DP  RH WIND       PRES   REMARKS
PUEBLO         FAIR      91  22   8 SW8       29.97F
LA JUNTA       FAIR      86  40  19 NE23G30   29.97F
LAMAR          FAIR      83  46  27 N24G37    29.93S
SPRINGFIELD      N/A     88  47  24 S18G30    29.98S
$$




USA.gov is the U.S. government's official web portal to all federal, state and local government web resources and services.